User: anonymous   Login
Location: Unspecified
(0.0000°N, 0.0000°E)
Time: 10:26:30
(UTC+00:00)
Language:

FLTSATCOM F8 - Orbit

View from above orbital plane
View from above orbital plane
View from above satellite
View from above satellite

Ground track
Ground track

The orbit data is extracted from the following two-line orbital elements,

1 20253U 89077A   20047.02743720 -.00000091 +00000-0 +00000-0 0  9992
2 20253 013.0445 006.4752 0003992 332.3239 248.4229 01.00271577237444
Epoch (UTC): 16 February 2020 00:39:30
Eccentricity: 0.0003992
inclination: 13.0445°
perigee height: 35769 km
apogee height: 35803 km
right ascension of ascending node: 6.4752°
argument of perigee: 332.3239°
revolutions per day: 1.00271577
mean anomaly at epoch: 248.4229°
orbit number at epoch: 23744

The dashed part of the orbit path shows where the satellite is in the earth's shadow,  

DLR